Location: Unspecified
(31.1500°N, 0.0000°E)
Time: 02:54:05
(UTC+00:00)

NOAA 16 DEB - Visible Passes

Search period start: 04 April 2026 00:00
Search period end: 14 April 2026 00:00
Orbit: 819 x 839 km, 98.6° (Epoch: 29 March)

Date Brightness Start Highest point End Pass type
(mag) Time Alt. Az. Time Alt. Az. Time Alt. Az.
4 Apr ? 20:21:21 13° NE 20:21:21 13° NE 20:22:20 10° NNE visible
4 Apr ? 22:02:53 16° NNW 22:02:53 16° NNW 22:04:00 10° NNW visible
5 Apr ? 21:44:25 20° NNW 21:44:25 20° NNW 21:46:01 10° NNW visible
6 Apr ? 21:25:56 23° N 21:25:56 23° N 21:27:51 10° N visible
7 Apr ? 21:07:26 23° N 21:07:26 23° N 21:09:32 10° N visible
8 Apr ? 20:48:58 21° NNE 20:48:58 21° NNE 20:51:01 10° N visible
8 Apr ? 22:30:30 12° NW 22:30:30 12° NW 22:30:57 10° NW visible
9 Apr ? 20:30:28 17° NE 20:30:28 17° NE 20:32:17 10° NNE visible
9 Apr ? 22:12:01 17° NW 22:12:01 17° NW 22:13:18 10° NNW visible
10 Apr ? 20:11:59 12° NE 20:11:59 12° NE 20:13:04 10° NE visible
10 Apr ? 21:53:31 22° NNW 21:53:31 22° NNW 21:55:24 10° NNW visible
11 Apr ? 21:35:02 26° NNW 21:35:02 26° NNW 21:37:19 10° NNW visible
12 Apr ? 21:16:33 28° N 21:16:33 28° N 21:19:05 10° N visible
13 Apr ? 20:58:04 26° NNE 20:58:04 26° NNE 21:00:40 10° N visible
13 Apr ? 22:39:36 11° NW 22:39:36 11° NW 22:39:57 10° NW visible
